Regional Weather Roundup
Issued by NWS New Orleans/Baton Rouge, LA

Home | Current Version | Previous Version | Text Only | Print | Product List | Glossary Off
Versions: 1 2 3 4 5 6 7 8 9 10 11 12 13 14 15 16 17 18 19 20 21 22 23 24 25 26 27 28 29 30 31 32 33 34 35 36 37 38 39 40 41 42 43 44 45 46 47 48 49 50

474
ASUS44 KLIX 280218
RWRLIX
NEW ORLEANS REGIONAL WEATHER ROUNDUP
NATIONAL WEATHER SERVICE NEW ORLEANS LA
900 PM CDT FRI MAR 27 2015

NOTE: "FAIR" INDICATES FEW OR NO CLOUDS BELOW 12,000 FEET WITH NO
      SIGNIFICANT WEATHER AND/OR OBSTRUCTIONS TO VISIBILITY.
      SKY/WX - SKY CONDITION AND SIGNIFICANT WEATHER.
      TMP - AIR TEMPERATURE.     DP    - DEWPOINT TEMPERATURE.
      RH  - RELATIVE HUMIDITY.   PRES  - PRESSURE.
      HI  - HEAT INDEX.          WCI   - WIND CHILL INDEX.

*  THESE STATIONS ARE NOT NWS OR FAA STATIONS AND ARE NOT UNDER
   NWS QUALITY CONTROL.

LAZ038-040-048-061>063-065>067-069-280300-
SOUTHEAST LOUISIANA

CITY           SKY/WX    TMP DP  RH WIND       PRES   REMARKS
N.O. AUDUBON     N/A     59 N/A N/A MISG        N/A
N.O. INTL ARPT PTCLDY    62  44  51 W3        30.07R
N.O. LAKEFRONT CLEAR     66  44  45 N10       30.07R
SLIDELL        CLEAR     55  44  66 CALM      30.07R
BATON ROUGE    CLEAR     57  46  66 CALM      30.07R
BOOTHVILLE     CLEAR     60  45  57 NW3       30.07R
BELLE CHASSE   PTCLDY    52  46  80 CALM      30.07R
BOGALUSA*        N/A     56  38  50 N7        30.10R
GALLIANO*      CLEAR     54  51  89 CALM      30.09R
NEW ROADS*       N/A     61  40  46 NW6       30.08R
GONZALES*        N/A     56  48  74 CALM      30.07R
HAMMOND*       CLEAR     54  43  66 N3        30.10R
HOUMA*         CLEAR     59  52  77 SW6       30.08R
PORT FOURCHON* CLEAR     64  52  63 W13       30.12

$$

MSZ070-080>082-280300-
SOUTHERN MISSISSIPPI

CITY           SKY/WX    TMP DP  RH WIND       PRES   REMARKS
MCCOMB         CLEAR     55  37  50 N8        30.10R
GULFPORT       CLEAR     59  35  40 N8        30.07R
BILOXI         CLEAR     58  37  45 NE10      30.07R
PASCAGOULA     CLEAR     57  35  43 N8        30.07R
STENNIS ARPT*  CLEAR     54  37  54 CALM      30.07R

$$

COASTAL OBSERVATIONS
LAKE AND NEARSHORE STATIONS

STATION/POSITION TIME  TEMP    WIND        PRES    WAVE
                       AIR SEA DIR/SP/G            HT/PER
                 (UTC) (F)     (DEG/KT/KT) (MB)    (FT/S)
PASCAGOULA       0100   62     360/ 13/ 18 1016.9
WAVELAND YACHT   0100   64 67   10/  9/ 12 1017.1
GRAND ISLE       0100   67 69  330/  9/ 13 1017.3
SOUTHWEST PASS   0100   59 52  240/  8/  9 1018.1
NEW CANAL        0100          300/  4/  9 1017.6
SHELL BEACH      0100   67 69  330/ 21/ 24 1017.2

OFFSHORE STATIONS

STATION/POSITION TIME  TEMP    WIND        PRES    WAVE
                       AIR SEA DIR/SP/G            HT/PER
                 (UTC) (F)     (DEG/KT/KT) (MB)    (FT/S)
64 S DAUPHIN ISL 0150   66 71  310/ 17/ 21 1018.0    4/ 5

$$




USA.gov is the U.S. government's official web portal to all federal, state and local government web resources and services.